Weather History for Selawik, AK

Change the Weather History Date:

Monday, April 22, 2013

  Actual Average Record
Temperature  
Mean Temperature 10 °F -  
Max Temperature 24 °F 25 °F 39 °F (2008)
Min Temperature -5 °F 10 °F -11 °F (2006)
Degree Days  
Heating Degree Days 56    
Moisture  
Dew Point 4 °F    
Average Humidity 83    
Maximum Humidity 100    
Minimum Humidity 68    
Precipitation  
Precipitation 0.00 in - - ()
Sea Level Pressure  
Sea Level Pressure 30.43 in    
Wind  
Wind Speed 6 mph (ENE)    
Max Wind Speed 9 mph    
Max Gust Speed -    
Visibility 10 miles    
Events      
Averages and records for this station are not official NWS values.
T = Trace of Precipitation, MM = Missing Value Source: NWS Daily Summary

Daily Weather History Graph

Daily Weather History Graph

Search for Another Location

Airport:

Trip Planner

Search our weather history database for the weather conditions in past years. The results will help you decide how hot, cold, wet, or windy it might be!

Date:

Astronomy

Apr. 22, 2013 Rise Set
Actual Time 6:26 AM AKDT 10:52 PM AKDT
Civil Twilight 5:14 AM AKDT 12:06 AM AKDT
Nautical Twilight 3:10 AM AKDT 2:05 AM AKDT
Astronomical Twilight Sun does not rise Sun does not rise
Moon 6:45 PM AKDT 5:50 AM AKDT
Length of Visible Light 18h 51m
Length of Day
16h 26m
Waxing Gibbous, 89% of the Moon is Illuminated
Apr 22
Waxing Gibbous
Apr 25
Full
May 2
Last Quarter
May 9
New
May 17
First Quarter

Hourly Weather History & Observations

Time (AKDT) Temp. Windchill Dew Point Humidity Pressure Visibility Wind Dir Wind Speed Gust Speed Precip Events Conditions
12:16 AM -0.4 °F -10.4 °F -4.0 °F 85% 30.48 in 10.0 mi ENE 4.6 mph - N/A   Clear
12:36 AM -0.4 °F -12.0 °F -4.0 °F 85% 30.48 in 10.0 mi ENE 5.8 mph - N/A   Mostly Cloudy
12:56 AM -2.2 °F -14.2 °F -5.8 °F 85% 30.48 in 10.0 mi ENE 5.8 mph - N/A   Scattered Clouds
1:16 AM -4.0 °F -14.6 °F -7.6 °F 85% 30.48 in 10.0 mi NE 4.6 mph - N/A   Clear
1:36 AM -2.2 °F -14.2 °F -4.0 °F 92% 30.47 in 10.0 mi ENE 5.8 mph - N/A   Clear
1:56 AM -4.0 °F -14.6 °F -9.4 °F 78% 30.48 in 10.0 mi ENE 4.6 mph - N/A   Clear
2:16 AM -4.0 °F -14.6 °F -7.6 °F 85% 30.48 in 10.0 mi NE 4.6 mph - N/A   Clear
2:36 AM -4.0 °F -14.6 °F -7.6 °F 85% 30.47 in 10.0 mi NE 4.6 mph - N/A   Partly Cloudy
2:56 AM -5.8 °F -16.7 °F -7.6 °F 92% 30.47 in 10.0 mi NE 4.6 mph - N/A   Mostly Cloudy
3:16 AM -5.8 °F -14.5 °F -9.4 °F 84% 30.47 in 10.0 mi NE 3.5 mph - N/A   Overcast
3:36 AM -5.8 °F -14.5 °F -7.6 °F 92% 30.48 in 10.0 mi NE 3.5 mph - N/A   Overcast
3:56 AM -5.8 °F -16.7 °F -9.4 °F 84% 30.47 in 10.0 mi ENE 4.6 mph - N/A   Overcast
4:16 AM -5.8 °F -18.4 °F -9.4 °F 84% 30.47 in 10.0 mi East 5.8 mph - N/A   Overcast
4:36 AM -5.8 °F -19.9 °F -9.4 °F 84% 30.47 in 10.0 mi ENE 6.9 mph - N/A   Overcast
4:56 AM -5.8 °F -19.9 °F -9.4 °F 84% 30.46 in 10.0 mi ENE 6.9 mph - N/A   Mostly Cloudy
5:16 AM -5.8 °F -19.9 °F -9.4 °F 84% 30.46 in 10.0 mi ENE 6.9 mph - N/A   Mostly Cloudy
5:36 AM -5.8 °F -19.9 °F -7.6 °F 92% 30.46 in 10.0 mi ENE 6.9 mph - N/A   Overcast
5:56 AM -5.8 °F -16.7 °F -9.4 °F 84% 30.45 in 10.0 mi ENE 4.6 mph - N/A   Scattered Clouds
6:16 AM -5.8 °F -19.9 °F -9.4 °F 84% 30.45 in 10.0 mi ENE 6.9 mph - N/A   Clear
6:36 AM -4.0 °F -17.8 °F -7.6 °F 85% 30.45 in 10.0 mi ENE 6.9 mph - N/A   Clear
6:56 AM -5.8 °F -18.4 °F -9.4 °F 84% 30.45 in 10.0 mi NE 5.8 mph - N/A   Clear
7:16 AM -4.0 °F -20.2 °F -7.6 °F 85% 30.45 in 10.0 mi NE 9.2 mph - N/A   Clear
7:36 AM -5.8 °F -18.4 °F -9.4 °F 84% 30.44 in 10.0 mi ENE 5.8 mph - N/A   Clear
7:56 AM -5.8 °F -16.7 °F -5.8 °F 100% 30.45 in 10.0 mi East 4.6 mph - N/A   Scattered Clouds
8:16 AM -2.2 °F -15.6 °F -7.6 °F 78% 30.44 in 10.0 mi East 6.9 mph - N/A   Scattered Clouds
8:36 AM -2.2 °F -10.4 °F -5.8 °F 85% 30.45 in 10.0 mi NE 3.5 mph - N/A   Partly Cloudy
8:56 AM -2.2 °F -15.6 °F -5.8 °F 85% 30.44 in 10.0 mi NE 6.9 mph - N/A   Clear
9:16 AM -0.4 °F -15.7 °F -2.2 °F 92% 30.43 in 10.0 mi NE 9.2 mph - N/A   Clear
9:36 AM 1.4 °F -12.5 °F 1.4 °F 100% 30.43 in 10.0 mi NE 8.1 mph - N/A   Clear
9:56 AM 3.2 °F -11.3 °F 1.4 °F 92% 30.43 in 10.0 mi ENE 9.2 mph - N/A   Clear
10:16 AM 3.2 °F -10.3 °F -0.4 °F 85% 30.44 in 10.0 mi ENE 8.1 mph - N/A   Clear
10:36 AM 3.2 °F -11.3 °F 1.4 °F 92% 30.43 in 10.0 mi ENE 9.2 mph - N/A   Clear
10:56 AM 3.2 °F -9.1 °F 1.4 °F 92% 30.44 in 10.0 mi ENE 6.9 mph - N/A   Clear
11:16 AM 5.0 °F -8.1 °F 3.2 °F 92% 30.43 in 10.0 mi ENE 8.1 mph - N/A   Clear
11:36 AM 6.8 °F -5.9 °F 3.2 °F 85% 30.43 in 10.0 mi ENE 8.1 mph - N/A   Clear
11:56 AM 8.6 °F -2.6 °F 5.0 °F 85% 30.43 in 10.0 mi ENE 6.9 mph - N/A   Clear
12:16 PM 8.6 °F -3.7 °F 6.8 °F 92% 30.43 in 10.0 mi East 8.1 mph - N/A   Clear
12:36 PM 8.6 °F -3.7 °F 6.8 °F 92% 30.43 in 10.0 mi ENE 8.1 mph - N/A   Clear
12:56 PM 10.4 °F -0.4 °F 6.8 °F 85% 30.43 in 10.0 mi ENE 6.9 mph - N/A   Clear
1:16 PM 12.2 °F 4.3 °F 8.6 °F 85% 30.43 in 10.0 mi ENE 4.6 mph - N/A   Clear
1:36 PM 12.2 °F 1.7 °F 8.6 °F 85% 30.43 in 10.0 mi East 6.9 mph - N/A   Clear
1:56 PM 14.0 °F 5.1 °F 10.4 °F 86% 30.43 in 10.0 mi ENE 5.8 mph - N/A   Clear
2:16 PM 15.8 °F 6.1 °F 10.4 °F 79% 30.43 in 10.0 mi East 6.9 mph - N/A   Clear
2:36 PM 15.8 °F 5.1 °F 12.2 °F 86% 30.43 in 10.0 mi East 8.1 mph - N/A   Clear
2:56 PM 17.6 °F 7.3 °F 12.2 °F 79% 30.42 in 10.0 mi East 8.1 mph - N/A   Clear
3:16 PM 17.6 °F 6.4 °F 12.2 °F 79% 30.43 in 10.0 mi East 9.2 mph - N/A   Clear
3:36 PM 19.4 °F 10.4 °F 12.2 °F 74% 30.43 in 10.0 mi East 6.9 mph - N/A   Clear
3:56 PM 19.4 °F 12.8 °F 15.8 °F 86% 30.42 in 10.0 mi East 4.6 mph - N/A   Clear
4:16 PM 19.4 °F 11.5 °F 14.0 °F 80% 30.42 in 10.0 mi NE 5.8 mph - N/A   Clear
4:36 PM 21.2 °F 13.6 °F 17.6 °F 86% 30.41 in 10.0 mi ENE 5.8 mph - N/A   Partly Cloudy
4:56 PM 21.2 °F 12.6 °F 15.8 °F 80% 30.40 in 10.0 mi ENE 6.9 mph - N/A   Clear
5:16 PM 21.2 °F 13.6 °F 15.8 °F 80% 30.39 in 10.0 mi ENE 5.8 mph - N/A   Clear
5:36 PM 21.2 °F 14.9 °F 17.6 °F 86% 30.39 in 10.0 mi East 4.6 mph - N/A   Clear
5:56 PM 23.0 °F 14.7 °F 17.6 °F 80% 30.39 in 10.0 mi ENE 6.9 mph - N/A   Clear
6:16 PM 23.0 °F 14.7 °F 15.8 °F 74% 30.39 in 10.0 mi East 6.9 mph - N/A   Clear
6:36 PM 23.0 °F 14.7 °F 17.6 °F 80% 30.38 in 10.0 mi East 6.9 mph - N/A   Clear
6:56 PM 23.0 °F 17.0 °F 17.6 °F 80% 30.38 in 10.0 mi East 4.6 mph - N/A   Clear
7:16 PM 23.0 °F - 17.6 °F 80% 30.38 in 10.0 mi Calm Calm - N/A   Partly Cloudy
7:36 PM 23.0 °F - 15.8 °F 74% 30.37 in 10.0 mi Calm Calm - N/A   Clear
7:56 PM 21.2 °F - 15.8 °F 80% 30.37 in 10.0 mi Calm Calm - N/A   Partly Cloudy
8:16 PM 19.4 °F - 12.2 °F 74% 30.37 in 10.0 mi Calm Calm - N/A   Partly Cloudy
8:36 PM 19.4 °F 12.8 °F 15.8 °F 86% 30.38 in 10.0 mi East 4.6 mph - N/A   Mostly Cloudy
8:56 PM 21.2 °F - 17.6 °F 86% 30.38 in 10.0 mi Calm Calm - N/A   Mostly Cloudy
9:16 PM 24.8 °F 19.1 °F 17.6 °F 74% 30.37 in 10.0 mi South 4.6 mph - N/A   Clear
9:36 PM 23.0 °F 13.9 °F 15.8 °F 74% 30.37 in 10.0 mi South 8.1 mph - N/A   Partly Cloudy
9:56 PM 24.8 °F 16.1 °F 15.8 °F 69% 30.37 in 10.0 mi South 8.1 mph - N/A   Partly Cloudy
10:16 PM 21.2 °F 13.6 °F 14.0 °F 74% 30.38 in 10.0 mi SW 5.8 mph - N/A   Clear
10:36 PM 21.2 °F 12.6 °F 12.2 °F 68% 30.37 in 10.0 mi WSW 6.9 mph - N/A   Clear
10:56 PM 21.2 °F 13.6 °F 12.2 °F 68% 30.38 in 10.0 mi WSW 5.8 mph - N/A   Clear
11:16 PM 21.2 °F 12.6 °F 15.8 °F 80% 30.38 in 10.0 mi SSW 6.9 mph - N/A   Scattered Clouds
11:36 PM 21.2 °F 14.9 °F 15.8 °F 80% 30.38 in 10.0 mi SSW 4.6 mph - N/A   Mostly Cloudy
11:56 PM 21.2 °F 14.9 °F 14.0 °F 74% 30.39 in 10.0 mi SW 4.6 mph - N/A   Mostly Cloudy